Overview Statistics Trail Chart Weather Telemetry Raw packets
 

This is the latest recevied weather packets stored in our database for station/object EA8EE-7. If no packets are shown the sender has not sent any weather packets the latest 10 day(s).

<< 18 19 20 21 22 23 24 >>
Time Temp. Humidity Pressure Rain* Wind** Luminosity Snow
1788333569 38.33° C 31% 1025.3 hPa - - - -
1788332966 37.78° C 32% 1024.2 hPa - - - -
1788331766 38.33° C 32% 1028.1 hPa - - - -
1788330566 37.22° C 33% 1026.6 hPa - - - -
1788329966 36.67° C 34% 1025.1 hPa - - - -
1788329365 36.11° C 35% 1025.1 hPa - - - -
1788328764 35° C 36% 1026.6 hPa - - - -
1788328165 34.44° C 38% 1024.4 hPa - - - -
1788327564 34.44° C 38% 1023.4 hPa - - - -
1788326964 34.44° C 38% 1022.1 hPa - - - -
1788326364 34.44° C 38% 1022.6 hPa - - - -
1788325764 34.44° C 38% 1022.2 hPa - - - -
1788325164 34.44° C 37% 1024.1 hPa - - - -
1788324564 34.44° C 37% 1022.7 hPa - - - -
1788323964 34.44° C 37% 1024 hPa - - - -
1788323364 34.44° C 37% 1023.7 hPa - - - -
1788322764 34.44° C 38% 1024.2 hPa - - - -
1788322164 34.44° C 38% 1024.1 hPa - - - -
1788321564 34.44° C 38% 1023.7 hPa - - - -
1788320964 34.44° C 38% 1023.8 hPa - - - -
1788320364 33.89° C 39% 1027.2 hPa - - - -
1788319764 33.89° C 40% 1024.6 hPa - - - -
1788319164 33.33° C 40% 1024.1 hPa - - - -
1788318564 33.89° C 40% 1024.9 hPa - - - -
1788317964 33.33° C 40% 1026.1 hPa - - - -

* Rain since midnight (hover to see other rain measurements)
** Current wind speed in m/s (hover to see current wind gust speed)